Tracking 30061 objects as of 9-Dec-2024
HD Live streaming from Space Station
objects crossing your sky now

AMOS 2

Track AMOS 2 now!
AMOS 2 is classified as:


NORAD ID: 28132
Int'l Code: 2003-059A
Perigee: 36,022.5 km
Apogee: 36,056.9 km
Inclination: 7.2 °
Period: 1,448.7 minutes
Semi major axis: 42410 km
RCS: 36.2156 m2 (large)
Launch date: December 27, 2003
Source: Israel (ISRA)
Launch site: TYURATAM MISSILE AND SPACE COMPLEX (TTMTR)

Ku-band communications, Europe, Middle East, East Coast of USA.
Your satellite tracking list
Your tracking list is empty




NASA's NSSDC Master Catalog

Two Line Element Set (TLE):
1 28132U 03059A   24343.53654326 -.00000264  00000-0  00000-0 0  9996
2 28132   7.1505  69.0448 0004052 152.7500 204.0763  0.99400893 76511
Source of the keplerian elements: AFSPC